TimeCST,TemperatureF,Dew PointF,Humidity,Sea Level PressureIn,VisibilityMPH,Wind Direction,Wind SpeedMPH,Gust SpeedMPH,PrecipitationIn,Events,Conditions,WindDirDegrees,DateUTC
12:15 AM,17.6,17.6,100,29.99,1.2,Calm,Calm,-,N/A,,Mist,0,2013-01-08 06:15:00
12:35 AM,15.8,14.0,93,29.99,3.0,Calm,Calm,-,N/A,,Clear,0,2013-01-08 06:35:00
12:55 AM,14.0,14.0,100,29.99,7.0,Calm,Calm,-,N/A,,Mostly Cloudy,0,2013-01-08 06:55:00
1:15 AM,14.0,14.0,100,30.00,7.0,Calm,Calm,-,N/A,,Mostly Cloudy,0,2013-01-08 07:15:00
1:35 AM,14.0,12.2,93,30.00,10.0,Calm,Calm,-,N/A,,Scattered Clouds,0,2013-01-08 07:35:00
1:55 AM,12.2,10.4,92,30.00,10.0,Calm,Calm,-,N/A,,Clear,0,2013-01-08 07:55:00
2:15 AM,12.2,12.2,100,30.00,10.0,Calm,Calm,-,N/A,,Clear,0,2013-01-08 08:15:00
2:35 AM,12.2,12.2,100,30.01,10.0,Calm,Calm,-,N/A,,Clear,0,2013-01-08 08:35:00
2:55 AM,12.2,12.2,100,30.01,10.0,Calm,Calm,-,N/A,,Clear,0,2013-01-08 08:55:00
3:15 AM,12.2,10.4,92,30.01,10.0,Calm,Calm,-,N/A,,Clear,0,2013-01-08 09:15:00
3:35 AM,12.2,12.2,100,30.01,7.0,Calm,Calm,-,N/A,,Clear,0,2013-01-08 09:35:00
3:55 AM,10.4,10.4,100,30.01,10.0,Calm,Calm,-,N/A,,Clear,0,2013-01-08 09:55:00
4:15 AM,10.4,10.4,100,30.01,10.0,Calm,Calm,-,N/A,,Clear,0,2013-01-08 10:15:00
4:35 AM,10.4,8.6,92,30.01,10.0,Calm,Calm,-,N/A,,Clear,0,2013-01-08 10:35:00
4:55 AM,8.6,6.8,92,30.00,10.0,Calm,Calm,-,N/A,,Clear,0,2013-01-08 10:55:00
5:15 AM,8.6,6.8,92,30.01,10.0,Calm,Calm,-,N/A,,Clear,0,2013-01-08 11:15:00
5:35 AM,8.6,6.8,92,30.01,10.0,Calm,Calm,-,N/A,,Clear,0,2013-01-08 11:35:00
5:55 AM,8.6,6.8,92,30.01,10.0,Calm,Calm,-,N/A,,Clear,0,2013-01-08 11:55:00
6:15 AM,6.8,5.0,92,30.01,10.0,Calm,Calm,-,N/A,,Scattered Clouds,0,2013-01-08 12:15:00
6:55 AM,5.0,5.0,100,30.01,10.0,Calm,Calm,-,N/A,,Overcast,0,2013-01-08 12:55:00
7:15 AM,6.8,5.0,92,30.02,10.0,Calm,Calm,-,N/A,,Overcast,0,2013-01-08 13:15:00
7:35 AM,6.8,5.0,92,30.01,7.0,Calm,Calm,-,N/A,,Mostly Cloudy,0,2013-01-08 13:35:00
8:15 AM,6.8,5.0,92,30.02,0.2,Calm,Calm,-,N/A,Fog,Light Freezing Fog,0,2013-01-08 14:15:00
8:35 AM,8.6,6.8,92,30.02,7.0,Calm,Calm,-,N/A,,Overcast,0,2013-01-08 14:35:00
9:15 AM,12.2,12.2,100,30.01,5.0,Calm,Calm,-,N/A,,Scattered Clouds,0,2013-01-08 15:15:00
9:35 AM,17.6,15.8,93,30.01,5.0,Calm,Calm,-,N/A,,Clear,0,2013-01-08 15:35:00
10:15 AM,21.2,21.2,100,30.01,5.0,Calm,Calm,-,N/A,,Clear,0,2013-01-08 16:15:00
10:35 AM,21.2,21.2,100,30.01,5.0,Calm,Calm,-,N/A,,Clear,0,2013-01-08 16:35:00
10:55 AM,23.0,23.0,100,30.00,7.0,Calm,Calm,-,N/A,,Clear,0,2013-01-08 16:55:00
11:15 AM,26.6,26.6,100,29.98,10.0,Calm,Calm,-,N/A,,Clear,0,2013-01-08 17:15:00
11:35 AM,32.0,30.2,93,29.97,10.0,Calm,Calm,-,N/A,,Clear,0,2013-01-08 17:35:00
11:55 AM,33.8,28.4,81,29.96,10.0,Calm,Calm,-,N/A,,Clear,0,2013-01-08 17:55:00
12:15 PM,35.6,28.4,75,29.94,10.0,SSE,4.6,-,N/A,,Clear,160,2013-01-08 18:15:00
12:35 PM,37.4,26.6,65,29.93,10.0,SSE,4.6,-,N/A,,Clear,160,2013-01-08 18:35:00
12:55 PM,37.4,26.6,65,29.92,10.0,SSE,5.8,-,N/A,,Clear,150,2013-01-08 18:55:00
1:15 PM,37.4,26.6,65,29.91,10.0,SE,5.8,-,N/A,,Clear,140,2013-01-08 19:15:00
1:35 PM,39.2,26.6,61,29.90,10.0,SSE,6.9,-,N/A,,Clear,160,2013-01-08 19:35:00
2:15 PM,41.0,26.6,57,29.89,10.0,SSE,9.2,-,N/A,,Clear,160,2013-01-08 20:15:00
2:35 PM,41.0,26.6,57,29.88,10.0,SSE,9.2,-,N/A,,Clear,160,2013-01-08 20:35:00
2:55 PM,41.0,26.6,57,29.87,10.0,SSE,8.1,16.1,N/A,,Clear,160,2013-01-08 20:55:00
3:15 PM,41.0,26.6,57,29.86,10.0,South,8.1,17.3,N/A,,Clear,170,2013-01-08 21:15:00
3:35 PM,39.2,26.6,61,29.86,10.0,SSE,8.1,17.3,N/A,,Clear,160,2013-01-08 21:35:00
4:15 PM,39.2,28.4,65,29.84,10.0,SSE,5.8,-,N/A,,Clear,160,2013-01-08 22:15:00
4:35 PM,37.4,28.4,70,29.84,10.0,South,8.1,-,N/A,,Clear,170,2013-01-08 22:35:00
4:55 PM,37.4,28.4,70,29.84,10.0,South,5.8,-,N/A,,Clear,170,2013-01-08 22:55:00
5:15 PM,35.6,28.4,75,29.85,10.0,SSW,5.8,-,N/A,,Clear,210,2013-01-08 23:15:00
5:35 PM,35.6,28.4,75,29.87,10.0,SW,5.8,-,N/A,,Clear,220,2013-01-08 23:35:00
6:15 PM,35.6,28.4,75,29.85,10.0,South,6.9,-,N/A,,Overcast,180,2013-01-09 00:15:00
6:35 PM,35.6,28.4,75,29.84,10.0,South,6.9,-,N/A,,Overcast,180,2013-01-09 00:35:00
6:55 PM,35.6,28.4,75,29.84,10.0,South,6.9,-,N/A,,Scattered Clouds,180,2013-01-09 00:55:00
7:35 PM,35.6,28.4,75,29.83,10.0,South,8.1,-,N/A,,Overcast,180,2013-01-09 01:35:00
7:55 PM,35.6,28.4,75,29.83,10.0,South,4.6,-,N/A,,Overcast,190,2013-01-09 01:55:00
8:15 PM,35.6,30.2,81,29.82,10.0,South,6.9,-,N/A,,Overcast,190,2013-01-09 02:15:00
8:35 PM,35.6,30.2,81,29.83,10.0,SSW,4.6,-,N/A,,Overcast,210,2013-01-09 02:35:00
8:55 PM,35.6,30.2,81,29.83,10.0,South,4.6,-,N/A,,Overcast,190,2013-01-09 02:55:00
9:35 PM,35.6,30.2,81,29.83,10.0,SSW,5.8,-,N/A,,Overcast,200,2013-01-09 03:35:00
9:55 PM,37.4,30.2,75,29.83,10.0,SW,9.2,-,N/A,,Overcast,220,2013-01-09 03:55:00
10:15 PM,37.4,30.2,75,29.83,10.0,SW,16.1,24.2,N/A,,Overcast,230,2013-01-09 04:15:00
10:35 PM,37.4,30.2,75,29.83,10.0,SW,9.2,23.0,N/A,,Mostly Cloudy,230,2013-01-09 04:35:00
10:55 PM,35.6,30.2,81,29.84,10.0,WSW,6.9,17.3,N/A,,Overcast,240,2013-01-09 04:55:00
11:15 PM,35.6,30.2,81,29.85,10.0,WSW,9.2,17.3,N/A,,Overcast,240,2013-01-09 05:15:00
11:35 PM,35.6,30.2,81,29.86,10.0,WSW,10.4,16.1,N/A,,Overcast,250,2013-01-09 05:35:00
11:55 PM,35.6,30.2,81,29.87,10.0,WSW,8.1,-,N/A,,Overcast,240,2013-01-09 05:55:00